Location: ????????
(41.2031°N, 22.5756°E)
Time: 15:15:33
(UTC+00:00)

Cosmos 1934 Rocket - Pass Details

Date: 01 December 2020
Orbit: 937 x 1000 km, 83.0° (Epoch: 20 January)

Event Time Altitude Azimuth Distance (km) Brightness Sun altitude
Rises 17:15:11 0° 354° (N) 3,730 7.0 -24.6°
Reaches altitude 10° 17:17:45 10° 356° (N) 2,773 6.3 -25.0°
Maximum altitude 17:24:07 75° 82° (E) 1,026 3.8 -26.2°
Drops below altitude 10° 17:30:22 10° 168° (SSE) 2,722 6.3 -27.4°
Sets 17:32:52 0° 169° (S) 3,657 7.0 -27.9°
